This is the latest recevied weather packets stored in our database for station/object N4HAC. If no packets are shown the sender has not sent any weather packets the latest 10 day(s).
| Time | Temp. | Humidity | Pressure | Rain* | Wind** | Luminosity | Snow |
|---|---|---|---|---|---|---|---|
| 1778083015 | 17.22° C | 93% | 1003.7 hPa | 0 mm | - | 299 W/m² | - |
| 1778082712 | 16.67° C | 94% | 1003.8 hPa | 0 mm | - | 334 W/m² | - |
| 1778081574 | 16.11° C | 97% | 1003.6 hPa | 0 mm | - | 149 W/m² | - |
| 1778081271 | 16.11° C | 97% | 1003.7 hPa | 0 mm | - | 144 W/m² | - |
| 1778080968 | 15.56° C | 98% | 1003.3 hPa | 0 mm | - | 206 W/m² | - |
| 1778080667 | 15.56° C | 99% | 1003.6 hPa | 0 mm | - | 145 W/m² | - |
| 1778080363 | 15.56° C | 99% | 1003.9 hPa | 0 mm | - | 144 W/m² | - |
| 1778080060 | 15.56° C | 99% | 1003.7 hPa | 0 mm | - | 114 W/m² | - |
| 1778079757 | 15.56° C | 99% | 1003.7 hPa | 0 mm | - | 132 W/m² | - |
| 1778079454 | 15.56° C | 99% | 1003.7 hPa | 0 mm | - | 159 W/m² | - |
| 1778079150 | 15.56° C | 99% | 1004.1 hPa | 0 mm | - | 182 W/m² | - |
| 1778078848 | 15.56° C | 99% | 1004.1 hPa | 0 mm | - | 236 W/m² | - |
| 1778078545 | 15.56° C | 99% | 1004.3 hPa | 0.51 mm | - | 184 W/m² | - |
| 1778078242 | 15° C | 99% | 1004.2 hPa | 0 mm | - | 94 W/m² | - |
| 1778077940 | 15° C | 99% | 1004.1 hPa | 0 mm | - | 73 W/m² | - |
| 1778077638 | 15° C | 99% | 1004 hPa | 0.51 mm | - | 42 W/m² | - |
| 1778077336 | 15° C | 99% | 1004 hPa | 0.51 mm | - | 64 W/m² | - |
| 1778077034 | 15° C | 99% | 1004 hPa | 0 mm | - | 139 W/m² | - |
| 1778076732 | 15° C | 99% | 1004.3 hPa | 1.27 mm | - | 122 W/m² | - |
| 1778076429 | 15° C | 99% | 1004.2 hPa | 1.78 mm | - | 82 W/m² | - |
| 1778076126 | 15° C | 99% | 1004.6 hPa | 0.51 mm | - | 81 W/m² | - |
| 1778075823 | 15° C | 99% | 1004.4 hPa | 0 mm | - | 83 W/m² | - |
| 1778075519 | 15° C | 99% | 1004.2 hPa | 0 mm | - | 84 W/m² | - |
| 1778075216 | 15° C | 99% | 1004.2 hPa | 0 mm | - | 80 W/m² | - |
| 1778074912 | 15° C | 99% | 1004.2 hPa | 0.51 mm | - | 109 W/m² | - |
* Rain latest hour (hover to see other rain measurements)
** Current wind speed in m/s (hover to see current wind gust speed)